When you browse on this site, cookies collect data to enhance your experience and personalize the content and advertising you see.
Visit our Privacy Policy to learn more. By continuing to use the site, you agree to this use of cookies and data.
  • In Österreich
  • Länderverzeichnis
  • Für 7 Tage
  • Wassertemperatur
  • Satellitenkarten
  • Wetterkarte
  • News
  • Widgets
  • user-avatar
    Anmelden

    Stündliche Wetter Barra

    Heute, 24 März, Sonntag

    Zeit Temperatur Niederschläge Wind Luftdruck Luftfeuchtigkeit
    00:00 +26°C° 0.4 mm 2 m/S 748 mmHg 96%
    01:00 +26°C° 0.4 mm 2 m/S 748 mmHg 96%
    02:00 +26°C° 0.2 mm 2 m/S 748 mmHg 97%
    03:00 +26°C° 0.2 mm 2 m/S 747 mmHg 97%
    04:00 +25°C° 0 mm 2 m/S 747 mmHg 97%
    05:00 +26°C° 0.2 mm 2 m/S 747 mmHg 97%
    06:00 +26°C° 0.2 mm 2 m/S 748 mmHg 96%
    07:00 +26°C° 0.2 mm 2 m/S 748 mmHg 96%
    08:00 +27°C° 0.2 mm 2 m/S 748 mmHg 93%
    09:00 +28°C° 0.2 mm 2 m/S 748 mmHg 89%
    10:00 +29°C° 0 mm 2 m/S 749 mmHg 84%
    11:00 +30°C° 0.8 mm 3 m/S 748 mmHg 82%
    12:00 +30°C° 0.8 mm 3 m/S 748 mmHg 80%
    13:00 +30°C° 0.8 mm 3 m/S 747 mmHg 78%
    14:00 +30°C° 0.9 mm 3 m/S 747 mmHg 80%
    15:00 +30°C° 0.9 mm 3 m/S 747 mmHg 82%
    16:00 +29°C° 0.9 mm 3 m/S 747 mmHg 83%
    17:00 +28°C° 1.9 mm 2 m/S 747 mmHg 87%
    18:00 +27°C° 1.9 mm 2 m/S 747 mmHg 91%
    19:00 +26°C° 1.9 mm 1 m/S 747 mmHg 95%
    20:00 +26°C° 1.1 mm 1 m/S 748 mmHg 95%
    21:00 +26°C° 1.1 mm 1 m/S 748 mmHg 96%
    22:00 +23°C° 1.1 mm 0 m/S 749 mmHg 96%
    23:00 +25°C° 0.3 mm 1 m/S 748 mmHg 96%

    Morgen, 25 März, Montag

    Zeit Temperatur Niederschläge Wind Luftdruck Luftfeuchtigkeit
    00:00 +25°C° 0.3 mm 1 m/S 748 mmHg 97%
    01:00 +25°C° 0.3 mm 1 m/S 748 mmHg 97%
    02:00 +25°C° 0.1 mm 1 m/S 748 mmHg 97%
    03:00 +25°C° 0.1 mm 1 m/S 747 mmHg 97%
    04:00 +25°C° 0.1 mm 1 m/S 747 mmHg 97%
    05:00 +25°C° 0.1 mm 1 m/S 747 mmHg 97%
    06:00 +25°C° 0.1 mm 1 m/S 748 mmHg 97%
    07:00 +25°C° 0.1 mm 1 m/S 748 mmHg 96%
    08:00 +27°C° 0.3 mm 1 m/S 748 mmHg 90%
    09:00 +29°C° 0.3 mm 1 m/S 748 mmHg 83%
    10:00 +30°C° 0.3 mm 1 m/S 749 mmHg 76%
    11:00 +31°C° 0.8 mm 1 m/S 748 mmHg 76%
    12:00 +31°C° 0.8 mm 2 m/S 748 mmHg 75%
    13:00 +31°C° 0.8 mm 2 m/S 747 mmHg 75%
    14:00 +31°C° 0.4 mm 2 m/S 747 mmHg 76%
    15:00 +31°C° 0.4 mm 2 m/S 746 mmHg 76%
    16:00 +30°C° 0.4 mm 2 m/S 746 mmHg 77%
    17:00 +29°C° 0.7 mm 2 m/S 747 mmHg 83%
    18:00 +28°C° 0.7 mm 2 m/S 747 mmHg 88%
    19:00 +27°C° 0.7 mm 1 m/S 747 mmHg 93%
    20:00 +26°C° 0.7 mm 1 m/S 748 mmHg 94%
    21:00 +26°C° 0.7 mm 1 m/S 749 mmHg 95%
    22:00 +26°C° 0.7 mm 1 m/S 749 mmHg 95%
    23:00 +26°C° 0.7 mm 1 m/S 749 mmHg 96%

    übermorgen, 26 März, Dienstag

    Zeit Temperatur Niederschläge Wind Luftdruck Luftfeuchtigkeit
    00:00 +26°C° 0.7 mm 1 m/S 749 mmHg 96%
    01:00 +24°C° 0.7 mm 0 m/S 748 mmHg 96%
    02:00 +24°C° 0.2 mm 0 m/S 748 mmHg 96%
    03:00 +24°C° 0.2 mm 0 m/S 748 mmHg 97%
    04:00 +24°C° 0.2 mm 0 m/S 747 mmHg 97%
    05:00 +24°C° 0.2 mm 0 m/S 748 mmHg 96%
    06:00 +24°C° 0.2 mm 0 m/S 748 mmHg 96%
    07:00 +26°C° 0.2 mm 1 m/S 748 mmHg 96%
    08:00 +27°C° 0.5 mm 1 m/S 749 mmHg 90%
    09:00 +29°C° 0.5 mm 1 m/S 749 mmHg 85%
    10:00 +30°C° 0.5 mm 1 m/S 749 mmHg 80%
    11:00 +30°C° 0.9 mm 1 m/S 749 mmHg 79%
    12:00 +30°C° 0.9 mm 2 m/S 748 mmHg 79%
    13:00 +31°C° 0.9 mm 2 m/S 748 mmHg 78%
    14:00 +30°C° 1 mm 2 m/S 747 mmHg 79%
    15:00 +30°C° 1 mm 2 m/S 747 mmHg 79%
    16:00 +30°C° 1 mm 2 m/S 746 mmHg 79%
    17:00 +29°C° 0.2 mm 1 m/S 747 mmHg 84%
    18:00 +28°C° 0.2 mm 1 m/S 747 mmHg 88%
    19:00 +26°C° 0.2 mm 1 m/S 747 mmHg 92%
    20:00 +26°C° 0.1 mm 1 m/S 748 mmHg 93%
    21:00 +26°C° 0.1 mm 1 m/S 749 mmHg 94%
    22:00 +26°C° 0.1 mm 1 m/S 749 mmHg 95%
    23:00 +26°C° 0.3 mm 1 m/S 749 mmHg 95%

    27 März, Mittwoch

    Zeit Temperatur Niederschläge Wind Luftdruck Luftfeuchtigkeit
    00:00 +26°C° 0.3 mm 1 m/S 748 mmHg 96%
    01:00 +26°C° 0.3 mm 1 m/S 748 mmHg 96%
    02:00 +26°C° 0.4 mm 1 m/S 748 mmHg 96%
    03:00 +26°C° 0.4 mm 1 m/S 747 mmHg 96%
    04:00 +26°C° 0.4 mm 1 m/S 747 mmHg 97%
    05:00 +26°C° 0.4 mm 1 m/S 747 mmHg 96%
    06:00 +26°C° 0.4 mm 1 m/S 748 mmHg 96%
    07:00 +26°C° 0.4 mm 1 m/S 748 mmHg 96%
    08:00 +28°C° 0.7 mm 1 m/S 748 mmHg 91%
    09:00 +29°C° 0.7 mm 1 m/S 749 mmHg 87%
    10:00 +30°C° 0.7 mm 1 m/S 749 mmHg 82%
    11:00 +30°C° 0.8 mm 1 m/S 748 mmHg 78%
    12:00 +31°C° 0.8 mm 2 m/S 748 mmHg 75%
    13:00 +31°C° 0.8 mm 2 m/S 747 mmHg 72%
    14:00 +31°C° 0.5 mm 2 m/S 747 mmHg 72%
    15:00 +31°C° 0.5 mm 2 m/S 746 mmHg 73%
    16:00 +30°C° 0.5 mm 2 m/S 746 mmHg 74%
    17:00 +29°C° 0.3 mm 2 m/S 746 mmHg 80%
    18:00 +28°C° 0.3 mm 2 m/S 746 mmHg 87%
    19:00 +27°C° 0.3 mm 2 m/S 747 mmHg 93%
    20:00 +26°C° 0.6 mm 2 m/S 747 mmHg 94%
    21:00 +26°C° 0.6 mm 1 m/S 748 mmHg 95%
    22:00 +26°C° 0.6 mm 1 m/S 748 mmHg 96%
    23:00 +26°C° 0.3 mm 1 m/S 748 mmHg 96%

    28 März, Donnerstag

    Zeit Temperatur Niederschläge Wind Luftdruck Luftfeuchtigkeit
    00:00 +26°C° 0.3 mm 1 m/S 747 mmHg 96%
    01:00 +26°C° 0.3 mm 1 m/S 747 mmHg 96%
    02:00 +26°C° 0.2 mm 1 m/S 746 mmHg 97%
    03:00 +25°C° 0.2 mm 1 m/S 746 mmHg 97%
    04:00 +25°C° 0.2 mm 1 m/S 746 mmHg 97%
    05:00 +25°C° 0.2 mm 1 m/S 746 mmHg 97%
    06:00 +25°C° 0.2 mm 1 m/S 747 mmHg 97%
    07:00 +26°C° 0.2 mm 1 m/S 747 mmHg 96%
    08:00 +27°C° 0.7 mm 1 m/S 747 mmHg 89%
    09:00 +29°C° 0.7 mm 1 m/S 747 mmHg 81%
    10:00 +29°C° 0.7 mm 0 m/S 748 mmHg 73%
    11:00 +31°C° 0.3 mm 1 m/S 747 mmHg 70%
    12:00 +32°C° 0.3 mm 1 m/S 746 mmHg 67%
    13:00 +32°C° 0.3 mm 2 m/S 746 mmHg 64%
    14:00 +32°C° 0 mm 2 m/S 745 mmHg 65%
    15:00 +32°C° 0 mm 2 m/S 745 mmHg 66%
    16:00 +31°C° 0 mm 3 m/S 744 mmHg 67%
    17:00 +30°C° 0 mm 2 m/S 745 mmHg 74%
    18:00 +28°C° 0 mm 2 m/S 746 mmHg 82%
    19:00 +27°C° 0 mm 1 m/S 746 mmHg 89%
    20:00 +27°C° 0.1 mm 1 m/S 747 mmHg 90%
    21:00 +26°C° 0.1 mm 1 m/S 747 mmHg 92%
    22:00 +26°C° 0.1 mm 1 m/S 747 mmHg 93%
    23:00 +26°C° 0.2 mm 1 m/S 747 mmHg 94%

    29 März, Freitag

    Zeit Temperatur Niederschläge Wind Luftdruck Luftfeuchtigkeit
    00:00 +24°C° 0.2 mm 0 m/S 747 mmHg 94%
    01:00 +24°C° 0.2 mm 0 m/S 746 mmHg 95%
    02:00 +24°C° 0.1 mm 0 m/S 746 mmHg 95%
    03:00 +26°C° 0.1 mm 1 m/S 746 mmHg 96%
    04:00 +25°C° 0.1 mm 1 m/S 746 mmHg 96%
    05:00 +26°C° 0.1 mm 1 m/S 746 mmHg 95%
    06:00 +26°C° 0.1 mm 1 m/S 746 mmHg 95%
    07:00 +26°C° 0.1 mm 1 m/S 747 mmHg 95%
    08:00 +27°C° 0.3 mm 1 m/S 747 mmHg 88%
    09:00 +29°C° 0.3 mm 1 m/S 747 mmHg 80%
    10:00 +31°C° 0.3 mm 1 m/S 747 mmHg 73%
    11:00 +31°C° 0.5 mm 1 m/S 746 mmHg 72%
    12:00 +31°C° 0.5 mm 2 m/S 746 mmHg 71%
    13:00 +32°C° 0.5 mm 2 m/S 745 mmHg 70%
    14:00 +31°C° 0.2 mm 2 m/S 745 mmHg 70%
    15:00 +31°C° 0.2 mm 2 m/S 744 mmHg 69%
    16:00 +31°C° 0.2 mm 2 m/S 744 mmHg 69%
    17:00 +30°C° 0 mm 2 m/S 745 mmHg 74%
    18:00 +28°C° 0 mm 2 m/S 745 mmHg 80%
    19:00 +27°C° 0 mm 1 m/S 746 mmHg 86%
    20:00 +27°C° 0 mm 1 m/S 746 mmHg 88%
    21:00 +26°C° 0 mm 1 m/S 747 mmHg 90%
    22:00 +26°C° 0 mm 1 m/S 747 mmHg 92%
    23:00 +26°C° 0 mm 1 m/S 747 mmHg 93%
    Mehr zeigen